Regional Weather Roundup
Issued by NWS

Home | Current Version | Previous Version | Graphics & Text | Print | Product List | Glossary On
Versions: 1 2 3 4 5 6 7 8 9 10 11 12 13 14 15 16 17 18 19 20 21 22 23 24 25 26 27 28 29 30 31 32 33 34 35 36 37 38 39 40 41 42 43 44 45 46 47 48 49 50
000
ASUS43 KLSX 230510
RWRMO

WEATHER SUMMARY FOR MISSOURI
NATIONAL WEATHER SERVICE SPRINGFIELD MO
1200 AM CDT MON APR 23 2018

NOTE: "FAIR" INDICATES FEW OR NO CLOUDS BELOW 12,000 FEET WITH NO
       SIGNIFICANT WEATHER AND/OR OBSTRUCTIONS TO VISIBILITY.
       CURRENT SKY AND/OR WEATHER CONDITIONS ARE NOT AVAILABLE FOR
       CHILLICOTHE AND FARMINGTON.

MOZ001>031-035>038-043-044-053-054-230600-
...NORTHERN AND WESTERN MISSOURI...

CITY           SKY/WX    TMP DP  RH WIND       PRES   REMARKS
KANSAS CTY INT CLOUDY    58  35  42 NE10      30.10F
KANSAS C DTWN  PTCLDY    61  35  37 NE7       30.09F
LEE`S SUMMIT   CLOUDY    57  36  45 NE9       30.09F
ST JOSEPH      CLOUDY    59  40  49 NE7       30.12F
CHILLICOTHE      N/A     58  26  29 N7        30.12F
KIRKSVILLE     CLOUDY    56  29  35 NE10      30.12F

$$
MOZ066>068-077>081-088>096-101>105-230600-
...SOUTHWEST MISSOURI...

CITY           SKY/WX    TMP DP  RH WIND       PRES   REMARKS
SPRINGFIELD    CLOUDY    50  49  96 N12       29.97F
JOPLIN         CLOUDY    52  49  89 NE13G25   30.00F
BRANSON        CLOUDY    50  50 100 N7        29.95F

$$
MOZ032>034-039>042-045>050-055>058-069>072-230600-
...CENTRAL MISSOURI...

CITY           SKY/WX    TMP DP  RH WIND       PRES   REMARKS
COLUMBIA       CLOUDY    57  38  48 NE12G23   30.04F
JEFFERSON CITY CLOUDY    60  42  51 NE12G20   30.03S
ROLLA          CLOUDY    52  50  93 NE13      30.00S FOG
SEDALIA        CLOUDY    57  42  57 N9        30.05F
WHITEMAN AFB   CLOUDY    55  40  58 N7        30.02F
WARRENSBURG    CLOUDY    54  37  54 N5        30.08R
OSAGE BEACH    CLOUDY    52  48  86 NE12      30.02S

$$
MOZ051-052-059>065-230600-
...EAST CENTRAL MISSOURI...

CITY           SKY/WX    TMP DP  RH WIND       PRES   REMARKS
ST LOUIS INTL  CLOUDY    58  47  66 NE10      30.04F
SPIRIT OF STL  CLOUDY    58  50  75 E10       30.03S
ST CHARLES     CLOUDY    59  46  62 NE15G23   30.04F

$$
MOZ072>076-082>087-097>100-106>115-230600-
...SOUTH CENTRAL AND SOUTHEAST MISSOURI...

CITY           SKY/WX    TMP DP  RH WIND       PRES   REMARKS
CAPE GIRARDEAU LGT RAIN  58  56  93 NE13      29.91F FOG
FARMINGTON     LGT RAIN  56  54  93 E14G23    29.97F
POPLAR BLUFF   LGT RAIN  58  57  97 NE8       29.88F
WEST PLAINS    CLOUDY    53  52  96 NE12      29.92F

$$




USA.gov is the U.S. government's official web portal to all federal, state and local government web resources and services.